Henderson, KY

4:40 PM CDT on July 19, 2019 (GMT -0500)
Henderson City-County

Weather History for KEHR - May, 2019

Change the Weather History Date:

Sunday, May 5, 2019

  Actual Average Record
Temperature  
Mean Temperature 64 °F -  
Max Temperature 72 °F 75 °F 92 °F (1952)
Min Temperature 54 °F 51 °F 34 °F (1940)
Degree Days  
Heating Degree Days 2    
Growing Degree Days 14 (Base 50)    
Moisture  
Dew Point 51 °F    
Average Humidity 71    
Maximum Humidity 97    
Minimum Humidity 39    
Precipitation  
Precipitation 0.00 in - - ()
Sea Level Pressure  
Sea Level Pressure 29.94 in    
Wind  
Wind Speed 6 mph (North)    
Max Wind Speed 9 mph    
Max Gust Speed -    
Visibility 10 miles    
Events      
Averages and records for this station are not official NWS values.
T = Trace of Precipitation, MM = Missing Value Source: NWS Daily Summary

Daily Weather History Graph

Daily Weather History Graph

Search for Another Location

Airport or City:

Astronomy

May. 05, 2019 Rise Set
Actual Time 5:50 AM CDT 7:44 PM CDT
Civil Twilight 5:22 AM CDT 8:13 PM CDT
Nautical Twilight 4:47 AM CDT 8:48 PM CDT
Astronomical Twilight 4:10 AM CDT 9:25 PM CDT
Moon 6:34 AM CDT (5/5) 8:37 PM CDT (5/5)
Length of Visible Light 14h 51m
Length of Day
13h 54m
New Moon, 1% of the Moon is Illuminated
May 5
New Moon
May 11
First Quarter
May 18
Full
May 26
Last Quarter
Jun 3
New

Hourly Weather History & Observations

Time (CDT) Temp. Dew Point Humidity Pressure Visibility Wind Dir Wind Speed Gust Speed Precip Events Conditions
12:56 AM 57.0 °F 54.0 °F 89% 29.89 in 10.0 mi NNE 8.1 mph - N/A   Overcast
2:56 AM 57.0 °F 52.0 °F 83% 29.88 in 10.0 mi NNE 8.1 mph - N/A   Overcast
3:56 AM 55.9 °F 52.0 °F 87% 29.88 in 10.0 mi North 5.8 mph - N/A   Overcast
4:56 AM 55.9 °F 52.0 °F 87% 29.89 in 10.0 mi NNW 4.6 mph - N/A   Overcast
5:56 AM 55.0 °F 52.0 °F 89% 29.91 in 10.0 mi NW 4.6 mph - N/A   Overcast
6:56 AM 55.0 °F 50.0 °F 83% 29.93 in 10.0 mi North 5.8 mph - N/A   Overcast
7:51 AM 55.4 °F 51.8 °F 88% 29.90 in 10.0 mi North 5.8 mph - N/A   Scattered Clouds
7:56 AM 55.9 °F 51.1 °F 84% 29.94 in 10.0 mi North 8.1 mph - N/A   Partly Cloudy
8:56 AM 57.0 °F 50.0 °F 77% 29.95 in 10.0 mi North 6.9 mph - N/A   Partly Cloudy
9:56 AM 60.1 °F 52.0 °F 75% 29.95 in 10.0 mi North 5.8 mph - N/A   Clear
10:56 AM 62.1 °F 51.1 °F 67% 29.97 in 10.0 mi North 6.9 mph - N/A   Clear
11:56 AM 64.9 °F 51.1 °F 61% 29.96 in 10.0 mi Variable 5.8 mph - N/A   Clear
12:56 PM 66.9 °F 48.9 °F 52% 29.95 in 10.0 mi NE 9.2 mph - N/A   Clear
1:56 PM 69.1 °F 46.9 °F 45% 29.94 in 10.0 mi North 6.9 mph - N/A   Clear
2:56 PM 71.1 °F 45.0 °F 39% 29.94 in 10.0 mi North 9.2 mph - N/A   Clear
3:56 PM 72.0 °F 46.9 °F 41% 29.93 in 10.0 mi Variable 5.8 mph - N/A   Clear
4:56 PM 71.1 °F 46.0 °F 41% 29.93 in 10.0 mi NE 4.6 mph - N/A   Clear
5:56 PM 72.0 °F 48.0 °F 43% 29.93 in 10.0 mi NNE 5.8 mph - N/A   Clear
6:56 PM 69.1 °F 50.0 °F 51% 29.94 in 10.0 mi Variable 5.8 mph - N/A   Clear
7:56 PM 64.9 °F 52.0 °F 63% 29.94 in 10.0 mi Calm Calm - N/A   Clear
8:56 PM 62.1 °F 52.0 °F 70% 29.96 in 10.0 mi Calm Calm - N/A   Clear
9:56 PM 57.0 °F 54.0 °F 89% 29.98 in 10.0 mi WSW 3.5 mph - N/A   Clear
10:56 PM 55.9 °F 54.0 °F 93% 29.99 in 10.0 mi WSW 3.5 mph - N/A   Clear
11:56 PM 54.0 °F 53.1 °F 97% 30.00 in 10.0 mi Calm Calm - N/A   Clear